Weather History for ENRO - October, 2012

Change the Weather History Date:

Sunday, October 28, 2012

  Actual Average Record
Temperature  
Mean Temperature 10 °F -  
Max Temperature 23 °F 35 °F 55 °F (2014)
Min Temperature -4 °F 27 °F -4 °F (2012)
Degree Days  
Heating Degree Days 56    
Moisture  
Dew Point 7 °F    
Average Humidity 86    
Maximum Humidity 93    
Minimum Humidity 68    
Precipitation  
Precipitation 0.00 in - - ()
Sea Level Pressure  
Sea Level Pressure 29.72 in    
Wind  
Wind Speed 4 mph ()    
Max Wind Speed 12 mph    
Max Gust Speed -    
Visibility 6.2 miles    
Events Snow    
Averages and records for this station are not official NWS values.
T = Trace of Precipitation, MM = Missing Value Source: Averaged Metar Reports

Daily Weather History Graph

Daily Weather History Graph

Search for Another Location

Airport or City:

Trip Planner

Search our weather history database for the weather conditions in past years. The results will help you decide how hot, cold, wet, or windy it might be!

Date:

Astronomy

Oct. 28, 2012 Rise Set
Actual Time 7:38 AM CET 4:17 PM CET
Civil Twilight 6:49 AM CET 5:06 PM CET
Nautical Twilight 5:56 AM CET 5:59 PM CET
Astronomical Twilight 5:03 AM CET 6:51 PM CET
Moon 3:32 PM CET (10/28) 6:02 AM CET (10/28)
Length of Visible Light 10h 16m
Length of Day
8h 39m
Waxing Gibbous, 98% of the Moon is Illuminated
Oct 28
Waxing Gibbous
Oct 29
Full
Nov 7
Last Quarter
Nov 13
New
Nov 20
First Quarter

Hourly Weather History & Observations

Time (CET) Temp. Windchill Dew Point Humidity Pressure Visibility Wind Dir Wind Speed Gust Speed Precip Events Conditions
12:20 AM 17.6 °F - 15.8 °F 93% 29.71 in 6.2 mi Variable 2.3 mph - N/A   Overcast
12:50 AM 17.6 °F - 15.8 °F 93% 29.71 in 6.2 mi Variable 2.3 mph - N/A   Scattered Clouds
1:20 AM 17.6 °F - 14.0 °F 86% 29.71 in 6.2 mi Variable 1.2 mph - N/A   Partly Cloudy
1:50 AM 14.0 °F 5.1 °F 12.2 °F 93% 29.71 in 6.2 mi SW 5.8 mph - N/A   Unknown
2:20 AM 14.0 °F - 12.2 °F 93% 29.71 in 6.2 mi Variable 1.2 mph - N/A   Unknown
2:50 AM 14.0 °F - 12.2 °F 93% 29.71 in 6.2 mi Variable 1.2 mph - N/A   Partly Cloudy
2:20 AM 15.8 °F 3.4 °F 14.0 °F 93% 29.71 in 6.2 mi SW 10.4 mph - N/A   Partly Cloudy
2:50 AM 15.8 °F 6.1 °F 14.0 °F 93% 29.71 in 6.2 mi WSW 6.9 mph - N/A   Overcast
3:20 AM 14.0 °F 6.5 °F 12.2 °F 93% 29.74 in 6.2 mi SSW 4.6 mph - N/A   Overcast
3:50 AM 14.0 °F 3.9 °F 12.2 °F 93% 29.71 in 6.2 mi SW 6.9 mph - N/A   Overcast
4:20 AM 14.0 °F 6.5 °F 12.2 °F 93% 29.71 in 6.2 mi SSE 4.6 mph - N/A   Overcast
4:50 AM 12.2 °F -1.8 °F 10.4 °F 92% 29.71 in 6.2 mi SW 11.5 mph - N/A   Overcast
5:20 AM 12.2 °F 1.7 °F 8.6 °F 85% 29.71 in 6.2 mi WSW 6.9 mph - N/A   Overcast
5:50 AM 12.2 °F -0.2 °F 8.6 °F 85% 29.71 in 6.2 mi WSW 9.2 mph - N/A   Mostly Cloudy
6:20 AM 10.4 °F -1.5 °F 6.8 °F 85% 29.71 in 6.2 mi WSW 8.1 mph - N/A   Mostly Cloudy
6:50 AM 8.6 °F - 5.0 °F 85% 29.71 in 6.2 mi Variable 1.2 mph - N/A   Unknown
7:20 AM 6.8 °F -2.0 °F 5.0 °F 92% 29.71 in 6.2 mi SW 4.6 mph - N/A Snow Snow Grains
7:50 AM 6.8 °F -2.0 °F 5.0 °F 92% 29.74 in 6.2 mi SW 4.6 mph - N/A   Overcast
8:20 AM 6.8 °F -5.9 °F 3.2 °F 85% 29.74 in 6.2 mi SW 8.1 mph - N/A   Mostly Cloudy
8:50 AM 6.8 °F -2.0 °F 3.2 °F 85% 29.74 in 6.2 mi SSW 4.6 mph - N/A   Scattered Clouds
9:20 AM 6.8 °F -5.9 °F 5.0 °F 92% 29.74 in 6.2 mi SW 8.1 mph - N/A   Overcast
9:50 AM 8.6 °F -1.3 °F 6.8 °F 92% 29.74 in 6.2 mi SSW 5.8 mph - N/A   Mostly Cloudy
10:20 AM 10.4 °F 2.2 °F 5.0 °F 79% 29.74 in 6.2 mi SSW 4.6 mph - N/A   Unknown
10:50 AM 10.4 °F -0.4 °F 6.8 °F 85% 29.74 in 6.2 mi SW 6.9 mph - N/A   Unknown
11:20 AM 14.0 °F 3.9 °F 8.6 °F 79% 29.74 in 6.2 mi SW 6.9 mph - N/A   Unknown
11:50 AM 17.6 °F 10.7 °F 12.2 °F 79% 29.74 in 6.2 mi SSW 4.6 mph - N/A   Unknown
12:20 PM 17.6 °F 10.7 °F 12.2 °F 79% 29.74 in 6.2 mi SSW 4.6 mph - N/A   Unknown
12:50 PM 19.4 °F 10.4 °F 12.2 °F 74% 29.71 in - SW 6.9 mph - N/A   Clear
1:20 PM 19.4 °F 10.4 °F 14.0 °F 80% 29.71 in - SSW 6.9 mph - N/A   Clear
1:50 PM 21.2 °F 16.4 °F 14.0 °F 74% 29.71 in - South 3.5 mph - N/A   Clear
2:20 PM 21.2 °F - 14.0 °F 74% 29.71 in - Variable 2.3 mph - N/A   Clear
2:50 PM 23.0 °F 18.4 °F 14.0 °F 68% 29.71 in - SW 3.5 mph - N/A   Clear
3:20 PM 21.2 °F 16.4 °F 15.8 °F 80% 29.71 in - SW 3.5 mph - N/A   Clear
3:50 PM 17.6 °F 12.3 °F 12.2 °F 79% 29.71 in - WSW 3.5 mph - N/A   Clear
4:20 PM 15.8 °F 10.2 °F 12.2 °F 86% 29.71 in - WSW 3.5 mph - N/A   Clear
4:50 PM 10.4 °F - 6.8 °F 85% 29.71 in - Variable 1.2 mph - N/A   Clear
5:20 PM 8.6 °F - 5.0 °F 85% 29.71 in - Calm Calm - N/A   Clear
5:50 PM 6.8 °F - 3.2 °F 85% 29.71 in - Calm Calm - N/A   Clear
6:20 PM 5.0 °F - 1.4 °F 85% 29.71 in - West 2.3 mph - N/A   Clear
6:50 PM 1.4 °F - -2.2 °F 85% 29.74 in - Calm Calm - N/A   Clear
7:20 PM 1.4 °F - -2.2 °F 85% 29.74 in 6.2 mi Calm Calm - N/A   Unknown
7:50 PM 1.4 °F - -2.2 °F 85% 29.74 in 6.2 mi WNW 1.2 mph - N/A   Unknown
8:20 PM -0.4 °F - -4.0 °F 85% 29.74 in 6.2 mi Calm Calm - N/A   Unknown
8:50 PM -2.2 °F - -5.8 °F 85% 29.74 in 6.2 mi Calm Calm - N/A   Unknown
9:20 PM -0.4 °F - -4.0 °F 85% 29.71 in 6.2 mi Calm Calm - N/A   Unknown
9:50 PM -2.2 °F - -5.8 °F 85% 29.74 in 6.2 mi Calm Calm - N/A Snow Light Snow
10:20 PM -4.0 °F - -7.6 °F 85% 29.71 in 6.2 mi Calm Calm - N/A   Unknown
10:50 PM -4.0 °F - -7.6 °F 85% 29.71 in 6.2 mi Calm Calm - N/A Snow Light Snow